Location: Unspecified
(0.0000°N, 0.0000°E)
Time: 22:29:49
(UTC+00:00)

ALSAT 1N - Visible Passes

Search period start: 30 May 2024 00:00
Search period end: 09 June 2024 00:00
Orbit: 652 x 692 km, 97.8° (Epoch: 30 May)

Date Brightness Start Highest point End Pass type
(mag) Time Alt. Az. Time Alt. Az. Time Alt. Az.
30 May ? 19:25:01 15° S 19:28:46 61° WSW 19:33:12 10° NNW visible
31 May ? 18:22:10 10° ESE 18:25:09 17° ENE 18:28:06 10° NE visible
31 May ? 19:58:46 11° SSW 20:02:03 21° WSW 20:05:26 10° NW visible
01 Jun ? 18:54:15 11° SSE 18:58:28 49° ENE 19:02:48 10° N visible
02 Jun ? 19:28:00 14° S 19:31:46 54° WSW 19:36:09 10° NNW visible
03 Jun ? 18:24:55 10° SE 18:28:08 19° ENE 18:31:19 10° NNE visible
03 Jun ? 20:01:51 10° SSW 20:05:02 19° WSW 20:08:12 10° WNW visible
04 Jun ? 18:57:13 11° SSE 19:01:26 55° ENE 19:05:49 10° N visible
05 Jun ? 19:30:56 13° S 19:34:44 48° WSW 19:39:03 10° NNW visible
06 Jun ? 18:27:42 10° SE 18:31:06 21° ENE 18:34:28 10° NNE visible
06 Jun ? 20:05:05 10° SW 20:07:59 17° WSW 20:10:54 10° WNW visible
07 Jun ? 19:00:08 11° SSE 19:04:23 62° ENE 19:08:49 10° N visible
08 Jun ? 19:33:50 13° S 19:37:40 43° WSW 19:41:55 10° NNW visible
